Location: Arcizac
(43.0933°N, 0.0112°E)
Time: 08:37:02
(UTC+00:00)

Cosmos 1980 - Pass Details

Date: 14 December 2019
Orbit: 838 x 849 km, 71.0° (Epoch: 24 January)

Event Time Altitude Azimuth Distance (km) Brightness Sun altitude
Rises 17:02:21 0° 217° (SW) 3,376 8.1 -6.8°
Reaches altitude 10° 17:04:50 10° 221° (SW) 2,447 7.4 -7.2°
Maximum altitude 17:10:19 54° 299° (WNW) 1,012 4.4 -8.1°
Drops below altitude 10° 17:15:52 10° 17° (NNE) 2,467 5.8 -9.0°
Enters shadow 17:18:16 - 22° (NNE) 3,364 6.4 -9.4°
